Hourly Weather Barsuki

Today, 21 April, Wednesday

Time Temperature Precipitation Wind Pressure Humidity
00:00 +5°C° 0.1 mm 2 mps 743 mmHg 93%
01:00 +5°C° 0.1 mm 2 mps 742 mmHg 93%
02:00 +5°C° 0.1 mm 2 mps 742 mmHg 93%
03:00 +6°C° 0 mm 1 mps 742 mmHg 93%
04:00 +6°C° 0 mm 1 mps 742 mmHg 93%
05:00 +5°C° 0 mm 1 mps 742 mmHg 92%
06:00 +6°C° 0 mm 1 mps 742 mmHg 91%
07:00 +6°C° 0 mm 1 mps 742 mmHg 89%
08:00 +6°C° 0 mm 1 mps 743 mmHg 88%
09:00 +6°C° 0 mm 1 mps 743 mmHg 86%
10:00 +7°C° 0 mm 1 mps 743 mmHg 83%
11:00 +7°C° 0 mm 1 mps 743 mmHg 81%
12:00 +7°C° 0.1 mm 2 mps 743 mmHg 75%
13:00 +8°C° 0.1 mm 3 mps 743 mmHg 69%
14:00 +9°C° 0.1 mm 3 mps 743 mmHg 62%
15:00 +10°C° 0.1 mm 3 mps 743 mmHg 64%
16:00 +10°C° 0.1 mm 2 mps 743 mmHg 65%
17:00 +10°C° 0.1 mm 2 mps 743 mmHg 66%
18:00 +9°C° 0.1 mm 2 mps 743 mmHg 71%
19:00 +8°C° 0.1 mm 2 mps 743 mmHg 76%
20:00 +7°C° 0.1 mm 2 mps 743 mmHg 81%
21:00 +7°C° 0 mm 3 mps 744 mmHg 84%
22:00 +7°C° 0 mm 3 mps 744 mmHg 87%
23:00 +5°C° 0 mm 3 mps 744 mmHg 90%

Tomorrow, 22 April, Thursday

Time Temperature Precipitation Wind Pressure Humidity
00:00 +5°C° 0.1 mm 3 mps 744 mmHg 91%
01:00 +5°C° 0.1 mm 3 mps 744 mmHg 92%
02:00 +4°C° 0.1 mm 3 mps 744 mmHg 93%
03:00 +4°C° 0 mm 3 mps 744 mmHg 93%
04:00 +4°C° 0 mm 3 mps 744 mmHg 93%
05:00 +5°C° 0 mm 2 mps 744 mmHg 93%
06:00 +5°C° 0 mm 3 mps 744 mmHg 89%
07:00 +8°C° 0 mm 3 mps 744 mmHg 84%
08:00 +10°C° 0 mm 4 mps 744 mmHg 79%
09:00 +10°C° 0.3 mm 5 mps 744 mmHg 73%
10:00 +13°C° 0.3 mm 5 mps 744 mmHg 67%
11:00 +14°C° 0.3 mm 6 mps 744 mmHg 60%
12:00 +15°C° 0.2 mm 6 mps 744 mmHg 54%
13:00 +15°C° 0.2 mm 6 mps 744 mmHg 49%
14:00 +16°C° 0.2 mm 6 mps 744 mmHg 43%
15:00 +15°C° 0.1 mm 6 mps 744 mmHg 49%
16:00 +14°C° 0.1 mm 5 mps 744 mmHg 55%
17:00 +14°C° 0.1 mm 5 mps 744 mmHg 62%
18:00 +12°C° 1.2 mm 5 mps 744 mmHg 71%
19:00 +10°C° 1.2 mm 5 mps 744 mmHg 80%
20:00 +10°C° 1.2 mm 4 mps 744 mmHg 89%
21:00 +8°C° 0.3 mm 4 mps 744 mmHg 90%
22:00 +8°C° 0.3 mm 4 mps 745 mmHg 90%
23:00 +7°C° 0.3 mm 4 mps 745 mmHg 90%

Day after tomorrow, 23 April, Friday

Time Temperature Precipitation Wind Pressure Humidity
00:00 +6°C° 0.1 mm 4 mps 745 mmHg 87%
01:00 +6°C° 0.1 mm 4 mps 745 mmHg 83%
02:00 +5°C° 0.1 mm 3 mps 746 mmHg 80%
03:00 +5°C° 0 mm 3 mps 746 mmHg 81%
04:00 +5°C° 0 mm 3 mps 746 mmHg 82%
05:00 +5°C° 0 mm 2 mps 746 mmHg 83%
06:00 +6°C° 0 mm 2 mps 746 mmHg 78%
07:00 +5°C° 0 mm 3 mps 746 mmHg 73%
08:00 +5°C° 0 mm 3 mps 746 mmHg 68%
09:00 +7°C° 0 mm 3 mps 746 mmHg 64%
10:00 +7°C° 0 mm 3 mps 746 mmHg 60%
11:00 +8°C° 0 mm 3 mps 746 mmHg 56%
12:00 +8°C° 0 mm 3 mps 746 mmHg 54%
13:00 +8°C° 0 mm 3 mps 746 mmHg 52%
14:00 +8°C° 0 mm 4 mps 746 mmHg 50%
15:00 +7°C° 0 mm 4 mps 746 mmHg 52%
16:00 +8°C° 0 mm 3 mps 746 mmHg 54%
17:00 +8°C° 0 mm 3 mps 746 mmHg 57%
18:00 +7°C° 0.1 mm 3 mps 746 mmHg 62%
19:00 +5°C° 0.1 mm 3 mps 746 mmHg 68%
20:00 +5°C° 0.1 mm 2 mps 746 mmHg 74%
21:00 +4°C° 0 mm 2 mps 746 mmHg 76%
22:00 +3°C° 0 mm 2 mps 745 mmHg 79%
23:00 +1°C° 0 mm 3 mps 745 mmHg 81%

24 April, Saturday

Time Temperature Precipitation Wind Pressure Humidity
00:00 +1°C° 0 mm 3 mps 745 mmHg 82%
01:00 0°C° 0 mm 3 mps 745 mmHg 83%
02:00 0°C° 0 mm 3 mps 745 mmHg 84%
03:00 0°C° 0 mm 3 mps 745 mmHg 87%
04:00 -1°C° 0 mm 3 mps 745 mmHg 91%
05:00 -1°C° 0 mm 3 mps 745 mmHg 94%
06:00 -1°C° 0 mm 4 mps 745 mmHg 88%
07:00 0°C° 0 mm 4 mps 745 mmHg 82%
08:00 +1°C° 0 mm 5 mps 745 mmHg 77%
09:00 +1°C° 0.2 mm 5 mps 745 mmHg 75%
10:00 +2°C° 0.2 mm 5 mps 745 mmHg 73%
11:00 +2°C° 0.2 mm 6 mps 745 mmHg 71%
12:00 +3°C° 0.3 mm 6 mps 745 mmHg 68%
13:00 +3°C° 0.3 mm 6 mps 745 mmHg 66%
14:00 +4°C° 0.3 mm 6 mps 745 mmHg 63%
15:00 +4°C° 0.2 mm 6 mps 745 mmHg 64%
16:00 +5°C° 0.2 mm 5 mps 745 mmHg 65%
17:00 +5°C° 0.2 mm 5 mps 745 mmHg 66%
18:00 +4°C° 0.1 mm 4 mps 745 mmHg 72%
19:00 +3°C° 0.1 mm 3 mps 745 mmHg 78%
20:00 +2°C° 0.1 mm 3 mps 745 mmHg 85%
21:00 +1°C° 0 mm 3 mps 745 mmHg 86%
22:00 +1°C° 0 mm 3 mps 745 mmHg 87%
23:00 0°C° 0 mm 3 mps 745 mmHg 88%

25 April, Sunday

Time Temperature Precipitation Wind Pressure Humidity
00:00 0°C° 0 mm 3 mps 745 mmHg 90%
01:00 -1°C° 0 mm 3 mps 745 mmHg 91%
02:00 -1°C° 0 mm 3 mps 745 mmHg 93%
03:00 -1°C° 0 mm 3 mps 745 mmHg 92%
04:00 -2°C° 0 mm 3 mps 745 mmHg 92%
05:00 -2°C° 0 mm 3 mps 745 mmHg 91%
06:00 -2°C° 0 mm 4 mps 745 mmHg 82%
07:00 0°C° 0 mm 4 mps 745 mmHg 72%
08:00 +1°C° 0 mm 5 mps 745 mmHg 63%
09:00 +1°C° 0.1 mm 6 mps 745 mmHg 66%
10:00 +1°C° 0.1 mm 6 mps 745 mmHg 69%
11:00 0°C° 0.1 mm 7 mps 745 mmHg 72%
12:00 +2°C° 0.4 mm 7 mps 745 mmHg 76%
13:00 +2°C° 0.4 mm 7 mps 744 mmHg 80%
14:00 +2°C° 0.4 mm 7 mps 744 mmHg 84%
15:00 +2°C° 0.2 mm 7 mps 744 mmHg 80%
16:00 +3°C° 0.2 mm 6 mps 744 mmHg 75%
17:00 +3°C° 0.2 mm 6 mps 745 mmHg 71%
18:00 +2°C° 0 mm 5 mps 745 mmHg 76%
19:00 +1°C° 0 mm 4 mps 745 mmHg 80%
20:00 0°C° 0 mm 3 mps 745 mmHg 85%
21:00 0°C° 0 mm 3 mps 745 mmHg 87%
22:00 0°C° 0 mm 3 mps 745 mmHg 89%
23:00 -2°C° 0 mm 4 mps 745 mmHg 91%

26 April, Monday

Time Temperature Precipitation Wind Pressure Humidity
00:00 -2°C° 0 mm 4 mps 745 mmHg 93%
01:00 -1°C° 0 mm 3 mps 745 mmHg 95%
02:00 -2°C° 0 mm 3 mps 745 mmHg 97%
03:00 -1°C° 0 mm 3 mps 745 mmHg 96%
04:00 -1°C° 0 mm 3 mps 745 mmHg 94%
05:00 0°C° 0 mm 3 mps 745 mmHg 93%
06:00 -1°C° 0 mm 4 mps 745 mmHg 88%
07:00 0°C° 0 mm 4 mps 746 mmHg 82%
08:00 0°C° 0 mm 5 mps 746 mmHg 76%
09:00 +1°C° 0 mm 5 mps 746 mmHg 73%
10:00 +1°C° 0 mm 5 mps 746 mmHg 70%
11:00 +1°C° 0 mm 5 mps 746 mmHg 66%
12:00 +1°C° 0 mm 5 mps 746 mmHg 66%
13:00 +2°C° 0 mm 5 mps 746 mmHg 65%
14:00 +2°C° 0 mm 5 mps 746 mmHg 64%
15:00 +2°C° 0 mm 5 mps 746 mmHg 64%
16:00 +2°C° 0 mm 5 mps 746 mmHg 65%
17:00 +3°C° 0 mm 4 mps 746 mmHg 66%
18:00 +1°C° 0 mm 4 mps 746 mmHg 70%
19:00 +1°C° 0 mm 4 mps 746 mmHg 74%
20:00 +1°C° 0 mm 3 mps 746 mmHg 77%
21:00 +1°C° 0.1 mm 3 mps 745 mmHg 83%
22:00 0°C° 0.1 mm 4 mps 745 mmHg 89%
23:00 0°C° 0.1 mm 4 mps 745 mmHg 95%
Show more